[[{"header":{"parameterUnit":"m.s-1","parameterCategory":1,"la1":30.2992,"la2":30.254,"lo1":-89.0895,"lo2":-89.0443,"dy":0.0025,"dx":0.0025,"nx":19,"ny":19,"refTime":"2026-05-17T03:00:00:Z","depth":0,"parameterNumber":2,"parameterNumberName":"U-component_of_WINDS"},"data":[0,0,0,-0.9283,-0.9283,-0.9316,-0.9316,-0.9367,-0.9367,0,0,0,0,0,0,0,0,0,0,0,-0.9277,-0.9278,-0.9283,-0.9283,-0.9316,-0.9316,-0.9367,-0.9367,0,0,0,0,0,0,0,0,0,0,0,-0.9277,-0.9278,-0.9278,-0.9284,-0.9316,-0.9316,-0.9367,-0.9339,0,0,0,0,0,0,0,0,0,0,-0.9307,-0.9305,-0.9278,-0.9278,-0.9284,-0.9315,-0.9316,-0.9338,-0.9341,-0.9356,0,-0.9369,0,-0.9369,-0.9371,-0.9372,0,0,0,-0.9281,-0.9303,-0.9307,-0.9278,-0.9284,-0.9315,-0.93,-0.934,-0.9343,-0.936,-0.937,-0.9371,-0.937,-0.9372,-0.9372,-0.9466,-0.9466,0,0,-0.9279,-0.9286,-0.9305,-0.931,-0.9303,-0.9299,-0.9301,-0.9342,-0.9353,-0.937,-0.9372,-0.9371,-0.9372,-0.9373,-0.9465,-0.9466,0,0,0,-0.9276,-0.9285,-0.9288,-0.9308,-0.9313,-0.93,-0.9303,-0.9351,-0.9351,-0.9373,-0.9371,-0.9372,-0.9373,-0.9464,-0.9465,-0.9501,0,0,0,-0.9275,-0.9283,-0.9288,-0.9292,-0.9312,-0.9332,-0.9311,-0.9349,-0.9353,-0.9371,-0.9373,-0.9374,-0.9464,-0.9465,-0.9498,-0.9517,0,0,0,-0.9274,-0.9283,-0.9288,-0.9292,-0.9306,-0.9331,-0.9334,-0.9349,-0.9352,-0.9372,-0.9374,-0.9463,-0.9465,-0.9496,-0.9514,-0.9545,0,0,0,-0.9276,-0.9319,-0.9289,-0.9337,-0.9306,-0.9352,-0.9333,-0.9367,-0.9388,-0.9373,-0.9464,-0.9465,-0.9496,-0.9511,-0.9543,-0.9575,-0.9588,0,0,-0.9334,-0.9326,-0.9354,-0.9328,-0.9381,-0.9346,-0.9405,-0.9418,-0.9414,-0.9449,-0.9451,-0.9499,-0.9513,-0.9545,-0.9655,-0.9666,0,0,0,-0.9375,-0.9396,-0.9408,-0.9428,-0.9438,-0.9449,-0.9452,-0.9457,-0.9487,-0.9433,-0.9518,-0.9526,-0.9544,-0.9559,-0.9568,-0.9585,-0.9472,-0.9472,-0.9471,-0.947,-0.9462,-0.9508,-0.9505,-0.9524,-0.9527,-0.9543,-0.9551,-0.9537,-0.9557,-0.9569,-0.9636,-0.9654,-0.966,-0.9678,-0.9583,-0.9583,-0.9583,-0.9583,-0.9557,-0.9586,-0.9567,-0.9605,-0.9597,-0.963,-0.9636,-0.9625,-0.9656,-0.9627,-0.9643,-0.9613,-0.9672,-0.9687,-0.9586,-0.9585,-0.9585,-0.9585,-0.9584,-0.9621,-0.9633,-0.9637,-0.9666,-0.9689,-0.9684,-0.9715,-0.9706,-0.9699,-0.9714,-0.9727,-0.9726,-0.9726,-0.972,-0.972,-0.9721,-0.9721,-0.9721,-0.9721,-0.9685,-0.9689,-0.9715,-0.973,-0.9742,-0.9758,-0.9762,-0.9774,-0.9787,-0.9778,-0.9778,-0.9765,-0.9678,-0.9658,-0.9725,-0.9724,-0.9724,-0.9723,-0.9723,-0.9781,-0.9758,-0.9798,-0.9811,-0.9829,-0.9854,-0.9842,-0.9869,-0.9878,-0.9894,-0.9876,-0.9813,-0.9805,-0.9798,-0.9781,-0.9876,-0.9876,-0.9876,-0.9876,-0.9836,-0.983,-0.9871,-0.9891,-0.991,-0.9904,-0.9953,-0.9957,-0.9959,-0.9964,-0.9949,-0.9926,-0.9919,-0.9915,-0.9905,-0.989,-1.001,-1.001,-1.001,-0.9896,-0.9892,-0.9934,-0.9933,-0.9947,-0.996,-1.0006,-1.0033,-1.0029,-1.0015,-0.997,-0.9964,-0.9926,-0.9913,-0.99,-0.9885,-0.9857,0,0]},{"header":{"parameterUnit":"m.s-1","parameterCategory":1,"la1":30.2992,"la2":30.254,"lo1":-89.0895,"lo2":-89.0443,"dy":0.0025,"dx":0.0025,"nx":19,"ny":19,"refTime":"2026-05-17T03:00:00:Z","depth":0,"parameterNumber":3,"parameterNumberName":"V-component_of_WINDS"},"data":[0,0,0,4.6623,4.6624,4.6699,4.6699,4.681,4.6812,0,0,0,0,0,0,0,0,0,0,0,4.6613,4.6614,4.6622,4.6625,4.6699,4.6699,4.681,4.6812,0,0,0,0,0,0,0,0,0,0,0,4.6612,4.6614,4.6615,4.6625,4.6699,4.6699,4.681,4.6748,0,0,0,0,0,0,0,0,0,0,4.6672,4.6676,4.6613,4.6615,4.6626,4.6699,4.6699,4.6744,4.6751,4.6784,0,4.6818,0,4.6817,4.682,4.6821,0,0,0,4.6615,4.667,4.6679,4.6615,4.6626,4.6699,4.6663,4.6748,4.6756,4.6794,4.682,4.6823,4.6819,4.6821,4.6822,4.7043,4.7044,0,0,4.6611,4.6633,4.6673,4.6685,4.6677,4.6661,4.6665,4.6753,4.6782,4.682,4.6826,4.6821,4.6822,4.6823,4.7042,4.7043,0,0,0,4.6606,4.663,4.6636,4.6681,4.6693,4.6663,4.6668,4.6778,4.6778,4.6827,4.6822,4.6823,4.6824,4.704,4.7042,4.7134,0,0,0,4.6603,4.6627,4.6635,4.6649,4.6692,4.6737,4.6692,4.6772,4.6782,4.6821,4.6823,4.6825,4.7038,4.7041,4.7128,4.7173,0,0,0,4.6604,4.6627,4.6642,4.665,4.6683,4.6735,4.674,4.6774,4.6779,4.6821,4.6826,4.7037,4.7041,4.7123,4.7165,4.7235,0,0,0,4.6611,4.6724,4.6644,4.6768,4.6682,4.6792,4.6739,4.682,4.6867,4.6823,4.7039,4.7042,4.7121,4.7159,4.723,4.7298,4.7329,0,0,4.6766,4.6744,4.6815,4.6745,4.6874,4.6779,4.6921,4.6944,4.6929,4.7005,4.701,4.713,4.7164,4.7234,4.7497,4.7522,0,0,0,4.6871,4.6922,4.6952,4.6997,4.7017,4.7036,4.7035,4.7043,4.7107,4.6973,4.7175,4.7195,4.7235,4.7266,4.7287,4.7319,4.7058,4.7058,4.7057,4.7121,4.7094,4.7208,4.7189,4.7234,4.7229,4.7262,4.7271,4.7232,4.728,4.7302,4.7465,4.7503,4.7518,4.7552,4.7338,4.7338,4.7338,4.7338,4.7344,4.741,4.7353,4.7443,4.7413,4.7488,4.7487,4.7456,4.7519,4.7447,4.7482,4.7403,4.7546,4.7574,4.7345,4.7344,4.7343,4.7342,4.7342,4.7503,4.7529,4.7536,4.7595,4.7644,4.762,4.7683,4.7653,4.7626,4.766,4.7678,4.7676,4.7668,4.7671,4.7671,4.7672,4.7672,4.7673,4.7673,4.7665,4.7669,4.7726,4.7753,4.7776,4.7802,4.7796,4.7817,4.7832,4.7806,4.7806,4.776,4.7567,4.7517,4.7682,4.768,4.7679,4.7678,4.7678,4.7897,4.7839,4.7927,4.7949,4.7976,4.8024,4.7985,4.8029,4.8042,4.8073,4.8019,4.7882,4.7857,4.784,4.7799,4.8027,4.8027,4.8027,4.8027,4.803,4.8014,4.8094,4.8131,4.8164,4.8136,4.8233,4.8228,4.8213,4.8219,4.8182,4.8125,4.8109,4.8094,4.8071,4.8032,4.8314,4.8315,4.8315,4.817,4.8155,4.8244,4.8228,4.8246,4.8261,4.8349,4.8392,4.8364,4.8326,4.8222,4.821,4.8118,4.809,4.8049,4.8015,4.7942,0,0]}]]